contact:dominique.lefevre@mio.osupytheas.fr, maurice.libes@osupytheas.fr
Project:EMSO Ligure-ouest http://www.emso-fr.org/EMSO-France
Sensor Aquadopp, line 13 Serial AQD14315 
DOI : "https://doi.org/10.17882/74513; https://doi.org/10.17882/83244" 
Title:EMSO Ligure Ouest : Data ligne ALBATROSS capteur AQUADOPP - deploiement 2021
Id,Date,Profondeur,Latitude,Longitude,X_East,Y_North,Z_Up,Amplitude_X,Amplitude_Y,Amplitude_Z,Batterie,SoundSpeed,Heading,Pitch,Roll,Pressure,Temperature,Speed,Direction
, , m, degrees North, degrees East, m.s-1, m.s-1,m.s-1, 1, 1, 1, Volt, m.s-1, degree, degree, degree, dbar, degree_C, m.s-1, degree
13,2022-07-22T23:30:00,2400.0,42.79,6.0312,0.048,-0.037,0.021,68.0,61.0,65.0,13.2,1504.9,167.2,-0.2,-0.6,2393.045,13.34,0.06,127.6
13,2022-07-23T00:00:00,2400.0,42.79,6.0312,0.023,0.001,-0.007,67.0,60.0,62.0,13.2,1504.9,168.7,-0.2,-0.6,2393.074,13.34,0.023,87.5
13,2022-07-23T00:30:00,2400.0,42.79,6.0312,0.021,-0.014,-0.009,66.0,62.0,64.0,13.2,1504.9,166.2,-0.2,-0.5,2393.142,13.34,0.025,123.7
13,2022-07-23T01:00:00,2400.0,42.79,6.0312,0.038,-0.027,0.006,69.0,59.0,64.0,13.2,1504.9,166.3,0.0,-0.7,2393.108,13.34,0.046,125.4
13,2022-07-23T01:30:00,2400.0,42.79,6.0312,0.048,-0.012,-0.015,68.0,60.0,62.0,13.2,1504.9,164.6,-0.5,-0.7,2393.174,13.34,0.049,104.0
13,2022-07-23T02:00:00,2400.0,42.79,6.0312,0.079,-0.016,-0.025,66.0,60.0,65.0,13.2,1504.9,164.0,-0.4,-0.6,2393.16,13.34,0.08,101.4
13,2022-07-23T02:30:00,2400.0,42.79,6.0312,0.038,0.012,-0.025,65.0,60.0,62.0,13.2,1504.9,168.5,0.0,-0.7,2393.166,13.34,0.039,72.5
13,2022-07-23T03:00:00,2400.0,42.79,6.0312,0.043,-0.036,-0.019,64.0,60.0,60.0,13.2,1504.9,164.3,-0.4,-0.6,2393.129,13.34,0.056,129.9
13,2022-07-23T03:30:00,2400.0,42.79,6.0312,0.06,-0.027,-0.013,65.0,60.0,63.0,13.2,1504.9,164.9,0.0,-0.7,2393.179,13.34,0.065,114.2
13,2022-07-23T04:00:00,2400.0,42.79,6.0312,0.069,-0.015,0.019,64.0,60.0,59.0,13.2,1504.9,166.0,0.1,-0.7,2393.156,13.34,0.07,102.3
13,2022-07-23T04:30:00,2400.0,42.79,6.0312,0.074,-0.004,0.012,64.0,63.0,63.0,13.2,1504.9,164.9,-0.4,-0.7,2393.106,13.34,0.074,93.1
13,2022-07-23T05:00:00,2400.0,42.79,6.0312,0.073,-0.024,-0.012,64.0,62.0,60.0,13.2,1504.9,167.6,-0.2,-0.6,2393.124,13.34,0.076,108.2
13,2022-07-23T05:30:00,2400.0,42.79,6.0312,0.049,-0.043,0.027,63.0,59.0,61.0,13.2,1504.9,168.1,-0.3,-0.5,2393.096,13.34,0.065,131.3
13,2022-07-23T06:00:00,2400.0,42.79,6.0312,0.058,-0.022,0.009,65.0,61.0,63.0,13.2,1504.9,166.4,-0.5,-0.5,2393.148,13.34,0.062,110.8
13,2022-07-23T06:30:00,2400.0,42.79,6.0312,0.051,-0.016,-0.014,68.0,61.0,63.0,13.2,1504.9,176.8,0.1,-0.6,2393.115,13.34,0.053,107.4
13,2022-07-23T07:00:00,2400.0,42.79,6.0312,0.044,-0.034,-0.018,64.0,60.0,61.0,13.2,1504.9,176.5,0.3,-0.6,2393.07,13.34,0.055,127.7
13,2022-07-23T07:30:00,2400.0,42.79,6.0312,0.045,-0.03,-0.017,68.0,60.0,59.0,13.2,1504.9,171.8,0.2,-0.6,2393.064,13.34,0.054,123.7
13,2022-07-23T08:00:00,2400.0,42.79,6.0312,0.033,-0.003,0.005,66.0,59.0,60.0,13.2,1504.9,175.7,0.4,-0.5,2393.062,13.34,0.033,95.2
13,2022-07-23T08:30:00,2400.0,42.79,6.0312,0.048,-0.022,-0.006,65.0,59.0,62.0,13.2,1504.9,175.8,-0.2,-0.7,2393.033,13.34,0.052,114.6
13,2022-07-23T09:00:00,2400.0,42.79,6.0312,0.037,-0.038,-0.023,64.0,60.0,59.0,13.2,1504.9,177.8,-0.1,-0.6,2393.017,13.34,0.053,135.8
13,2022-07-23T09:30:00,2400.0,42.79,6.0312,0.052,-0.05,-0.016,65.0,59.0,61.0,13.2,1504.9,171.9,0.1,-0.6,2393.044,13.34,0.072,133.9
13,2022-07-23T10:00:00,2400.0,42.79,6.0312,0.028,-0.057,0.01,64.0,59.0,61.0,13.2,1504.9,180.3,-0.5,-0.8,2393.025,13.34,0.063,153.8
13,2022-07-23T10:30:00,2400.0,42.79,6.0312,0.046,-0.035,-0.03,66.0,60.0,61.0,13.2,1504.9,172.7,0.2,-0.6,2393.02,13.34,0.057,127.3
13,2022-07-23T11:00:00,2400.0,42.79,6.0312,0.046,-0.016,-0.044,64.0,59.0,57.0,13.2,1504.9,175.4,0.2,-0.6,2393.051,13.34,0.048,109.2
13,2022-07-23T11:30:00,2400.0,42.79,6.0312,0.03,-0.034,-0.029,66.0,58.0,60.0,13.2,1504.9,168.6,0.0,-0.6,2393.056,13.34,0.045,138.6
13,2022-07-23T12:00:00,2400.0,42.79,6.0312,0.042,-0.027,-0.017,65.0,61.0,60.0,13.2,1504.9,171.7,-0.2,-0.5,2393.065,13.34,0.049,122.7
13,2022-07-23T13:00:00,2400.0,42.79,6.0312,0.043,-0.058,-0.019,65.0,60.0,61.0,13.2,1504.9,164.9,-0.2,-0.5,2393.062,13.34,0.072,143.4
13,2022-07-23T13:30:00,2400.0,42.79,6.0312,0.03,-0.006,-0.01,66.0,61.0,63.0,13.2,1504.9,166.3,-0.1,-0.5,2393.11,13.34,0.03,101.3
13,2022-07-23T14:00:00,2400.0,42.79,6.0312,0.025,-0.027,0.036,67.0,59.0,63.0,13.2,1504.9,169.6,0.2,-0.5,2393.118,13.34,0.036,137.2
13,2022-07-23T14:30:00,2400.0,42.79,6.0312,0.038,-0.024,-0.005,66.0,60.0,59.0,13.2,1504.9,172.3,-0.1,-0.6,2393.133,13.34,0.044,122.3
13,2022-07-23T15:00:00,2400.0,42.79,6.0312,0.034,-0.015,-0.033,66.0,61.0,62.0,13.2,1504.9,169.3,0.0,-0.6,2393.111,13.34,0.037,113.8
13,2022-07-23T15:30:00,2400.0,42.79,6.0312,0.014,-0.028,-0.002,70.0,59.0,63.0,13.2,1504.9,168.1,-0.4,-0.6,2393.13,13.34,0.031,153.4
13,2022-07-23T16:00:00,2400.0,42.79,6.0312,0.042,-0.005,-0.034,68.0,61.0,62.0,13.2,1504.9,169.3,0.0,-0.6,2393.137,13.34,0.042,96.8
13,2022-07-23T16:30:00,2400.0,42.79,6.0312,0.029,-0.025,0.004,65.0,58.0,61.0,13.2,1504.9,169.1,-0.3,-0.6,2393.117,13.34,0.038,130.8
13,2022-07-23T17:00:00,2400.0,42.79,6.0312,0.047,-0.031,0.016,66.0,62.0,61.0,13.2,1504.9,169.1,0.1,-0.5,2393.152,13.34,0.056,123.4
13,2022-07-23T17:30:00,2400.0,42.79,6.0312,0.049,0.002,-0.026,66.0,60.0,63.0,13.2,1504.9,166.1,-0.2,-0.5,2393.175,13.34,0.049,87.7
13,2022-07-23T18:00:00,2400.0,42.79,6.0312,0.053,-0.023,0.02,66.0,61.0,63.0,13.2,1504.9,166.8,-0.3,-0.5,2393.134,13.34,0.057,113.5
13,2022-07-23T18:30:00,2400.0,42.79,6.0312,0.048,-0.01,-0.01,65.0,58.0,60.0,13.2,1504.9,165.4,-0.1,-0.5,2393.176,13.34,0.049,101.8
13,2022-07-23T19:00:00,2400.0,42.79,6.0312,0.034,-0.017,0.011,63.0,59.0,63.0,13.2,1504.9,169.2,-0.2,-0.5,2393.088,13.34,0.038,116.6
13,2022-07-23T19:30:00,2400.0,42.79,6.0312,0.048,-0.038,0.003,66.0,61.0,63.0,13.2,1504.9,166.6,-0.3,-0.5,2393.158,13.34,0.061,128.4
13,2022-07-23T20:00:00,2400.0,42.79,6.0312,0.044,-0.021,0.015,66.0,60.0,62.0,13.2,1504.9,169.5,-0.5,-0.6,2393.172,13.34,0.048,115.5
13,2022-07-23T20:30:00,2400.0,42.79,6.0312,0.026,0.002,-0.026,66.0,60.0,63.0,13.2,1504.9,169.1,0.0,-0.6,2393.118,13.34,0.026,85.6
13,2022-07-23T21:00:00,2400.0,42.79,6.0312,0.044,-0.019,0.043,67.0,59.0,61.0,13.2,1504.9,169.6,-0.2,-0.6,2393.103,13.34,0.047,113.4
13,2022-07-23T21:30:00,2400.0,42.79,6.0312,0.03,-0.008,-0.018,65.0,61.0,60.0,13.2,1504.9,170.1,-0.3,-0.5,2393.107,13.34,0.031,104.9
13,2022-07-23T22:00:00,2400.0,42.79,6.0312,0.043,-0.017,-0.012,66.0,60.0,62.0,13.2,1504.9,169.8,-0.1,-0.5,2393.065,13.34,0.046,111.6
13,2022-07-23T22:30:00,2400.0,42.79,6.0312,0.052,-0.025,-0.014,66.0,59.0,62.0,13.2,1504.9,166.8,-0.2,-0.5,2393.093,13.34,0.057,115.7
13,2022-07-23T23:00:00,2400.0,42.79,6.0312,0.045,-0.04,0.02,67.0,58.0,60.0,13.2,1504.9,171.2,0.2,-0.6,2393.016,13.34,0.06,131.6
